Content
SEND FEEDBACK

Daily
Averages
Monthly
Summary
United States of America

ASHEVILLE, NORTH CAROLINA


Home > North America > United States > North Carolina
Elevation: 2240 feet     Latitude: 35 36N     Longitude: 082 32W

WEATHER
 
SELECT A DAY
Number of Records: 225,823;   Date Range: 1/1/95 - 7/29/14
 
SHARE

PRINT THIS DATA

[ ← Previous Day ]
WEATHER ALMANAC - MARCH 25, 2013
[ Next Day → ]
[ °C ]   °F
Weather ElementAverageHighLow
Temperature35.6 °F39.2 °F (12:46 am)30.9 °F (11:54 pm)
Dewpoint24.1 °F37.9 °F (12:54 am)16 °F (7:54 pm)
Humidity64.8 %100 % (12:54 am)46 % (12:54 pm)
Barometer29.66 in29.89 in (11:54 pm)29.52 in (12:54 am)
Wind Speed10.4 mph17.3 mph (10:54 pm)
Wind Gust29.9 mph (11:54 am)
Weather ElementAverage
Visibility9.6 mi
Wind DirectionWSW (259.6 °)

Weather ElementTotal
Precipitation0.02 in
Heating Degree Days30 (Base 65)
Averaged from 28 records on March 25, 2013
WEATHER CONDITIONS BREAKOUT
WIND DIRECTION BREAKOUT
WEATHER BY HOUR - MARCH 25, 2013
[ °C ]   °F
Local TimeTemperatureDewpointHumidityBarometerVisibilityWind DirectionWind SpeedGust SpeedPrecipitationEventsConditions
12:46 AM39.2 °F37.4 °F93 %29.53 in10.0 miCalm0.00 inRainLight Rain
12:54 AM37.9 °F37.9 °F100 %29.52 in7.0 miCalm0.00 inRainLight Rain
1:03 AM37.4 °F37.4 °F100 %29.52 in6.0 miCalm0.01 inRainLight Rain
1:54 AM39.0 °F37.0 °F93 %29.53 in10.0 miCalm0.01 inOvercast
2:11 AM39.2 °F35.6 °F87 %29.54 in10.0 miNNW (330°)6.9 mphOvercast
2:21 AM39.2 °F35.6 °F87 %29.54 in10.0 miWest (280°)8.1 mphMostly Cloudy
2:54 AM37.9 °F33.1 °F83 %29.54 in10.0 miWNW (300°)12.7 mph21.9 mphPartly Cloudy
3:54 AM36.0 °F28.0 °F73 %29.53 in10.0 miNW (310°)6.9 mphMostly Cloudy
4:54 AM37.0 °F26.1 °F65 %29.54 in10.0 miWNW (300°)6.9 mphOvercast
5:54 AM35.1 °F23.0 °F61 %29.56 in10.0 miNW (310°)11.5 mphOvercast
6:54 AM33.1 °F21.0 °F61 %29.58 in10.0 miNW (310°)11.5 mph21.9 mphMostly Cloudy
7:54 AM32.0 °F21.0 °F64 %29.61 in10.0 miWNW (290°)12.7 mph17.3 mphOvercast
8:54 AM32.0 °F21.9 °F66 %29.63 in9.0 miNW (320°)15.0 mph0.00 inOvercast
9:54 AM32.0 °F21.0 °F64 %29.65 in8.0 miWNW (300°)15.0 mph21.9 mph0.00 inSnowLight Snow
10:54 AM35.1 °F19.9 °F54 %29.66 in10.0 miWNW (290°)12.7 mph24.2 mph0.00 inOvercast
11:54 AM37.0 °F19.0 °F48 %29.68 in10.0 miWest (280°)16.1 mph29.9 mphOvercast
12:54 PM39.0 °F19.9 °F46 %29.69 in10.0 miWNW (300°)12.7 mph25.3 mphMostly Cloudy
1:54 PM37.9 °F19.0 °F47 %29.69 in10.0 miWNW (300°)16.1 mph25.3 mphOvercast
2:54 PM37.9 °F19.0 °F47 %29.69 in10.0 miWNW (300°)12.7 mph23.0 mph0.00 inOvercast
3:54 PM36.0 °F19.0 °F50 %29.70 in10.0 miWNW (300°)8.1 mph21.9 mph0.00 inSnowLight Snow
4:54 PM37.0 °F19.0 °F48 %29.72 in10.0 miNW (320°)9.2 mph17.3 mph0.00 inOvercast
5:54 PM35.1 °F19.9 °F54 %29.76 in10.0 miWest (280°)15.0 mph24.2 mph0.00 inSnowLight Snow
6:54 PM35.1 °F17.1 °F48 %29.79 in10.0 miWNW (300°)15.0 mph26.5 mph0.00 inOvercast
7:54 PM33.1 °F16.0 °F50 %29.82 in10.0 miNW (310°)10.4 mph28.8 mphMostly Cloudy
8:54 PM32.0 °F17.1 °F54 %29.85 in10.0 miWNW (290°)9.2 mph20.7 mphMostly Cloudy
9:54 PM32.0 °F17.1 °F54 %29.87 in10.0 miWNW (300°)15.0 mph24.2 mphOvercast
10:54 PM32.0 °F17.1 °F54 %29.88 in10.0 miNW (310°)17.3 mph23.0 mphOvercast
11:54 PM30.9 °F19.9 °F64 %29.89 in10.0 miNNW (340°)13.8 mph0.00 inOvercast
Hourly data recorded from KAVL, located miles away from Asheville, North Carolina







STORIES FROM OUR PARTNERS